Weather History for KMJQ - May, 2013

Change the Weather History Date:

Friday, May 10, 2013

  Actual Average (KEST) Record (KEST)
Temperature  
Mean Temperature 50 °F 56 °F  
Max Temperature 64 °F 69 °F - ()
Min Temperature 35 °F 44 °F - ()
Degree Days  
Heating Degree Days 16 9  
Month to date heating degree days 106  
Since 1 July heating degree days 7567  
Cooling Degree Days 0 1  
Month to date cooling degree days 4  
Year to date cooling degree days 6  
Moisture  
Dew Point 33 °F    
Average Humidity 53    
Maximum Humidity 87    
Minimum Humidity 19    
Precipitation  
Precipitation 0.00 in 0.14 in - ()
Month to date precipitation 1.23  
Sea Level Pressure  
Sea Level Pressure 30.05 in    
Wind  
Wind Speed 11 mph (NNW)    
Max Wind Speed 26 mph    
Max Gust Speed 39 mph    
Visibility 10 miles    
Events      
T = Trace of Precipitation, MM = Missing Value Source: NWS Daily Summary

Daily Weather History Graph

Daily Weather History Graph

Search for Another Location

Airport or City:

Trip Planner

Search our weather history database for the weather conditions in past years. The results will help you decide how hot, cold, wet, or windy it might be!

Date:

Astronomy

May. 10, 2013 Rise Set
Actual Time 6:00 AM CDT 8:33 PM CDT
Civil Twilight 5:27 AM CDT 9:05 PM CDT
Nautical Twilight 4:47 AM CDT 9:46 PM CDT
Astronomical Twilight 4:01 AM CDT 10:33 PM CDT
Moon 6:24 AM CDT (5/10) 9:24 PM CDT (5/10)
Length of Visible Light 15h 38m
Length of Day
14h 32m
New Moon, 0% of the Moon is Illuminated
May 10
New Moon
May 17
First Quarter
May 24
Full
May 31
Last Quarter
Jun 8
New

Hourly Weather History & Observations

Time (CDT) Temp. Windchill Dew Point Humidity Pressure Visibility Wind Dir Wind Speed Gust Speed Precip Events Conditions
12:12 AM 46.4 °F 39.5 °F 41.0 °F 81% 30.08 in 10.0 mi NNE 17.3 mph 23.0 mph N/A   Overcast
12:52 AM 44.6 °F 38.1 °F 39.2 °F 81% 30.09 in 10.0 mi NNE 13.8 mph - N/A   Overcast
1:12 AM 44.6 °F 37.4 °F 35.6 °F 71% 30.09 in 10.0 mi NNE 16.1 mph 23.0 mph N/A   Overcast
1:32 AM 44.6 °F 37.4 °F 35.6 °F 71% 30.09 in 10.0 mi North 16.1 mph - N/A   Overcast
1:52 AM 44.6 °F 38.1 °F 35.6 °F 71% 30.09 in 10.0 mi North 13.8 mph - N/A   Overcast
2:12 AM 42.8 °F 35.8 °F 33.8 °F 70% 30.08 in 10.0 mi NNE 13.8 mph - N/A   Overcast
2:32 AM 42.8 °F 36.2 °F 33.8 °F 70% 30.07 in 10.0 mi NNE 12.7 mph 19.6 mph N/A   Overcast
2:52 AM 42.8 °F 36.2 °F 32.0 °F 66% 30.08 in 10.0 mi North 12.7 mph - N/A   Overcast
3:12 AM 42.8 °F 35.8 °F 32.0 °F 66% 30.08 in 10.0 mi NNE 13.8 mph - N/A   Overcast
3:53 AM 41.0 °F 34.7 °F 32.0 °F 70% 30.08 in 10.0 mi North 10.4 mph - N/A   Scattered Clouds
4:12 AM 39.2 °F 34.2 °F 32.0 °F 75% 30.08 in 10.0 mi North 6.9 mph - N/A   Clear
4:32 AM 39.2 °F 33.0 °F 32.0 °F 75% 30.08 in 10.0 mi North 9.2 mph - N/A   Clear
4:52 AM 37.4 °F 31.4 °F 32.0 °F 81% 30.09 in 10.0 mi North 8.1 mph - N/A   Clear
5:12 AM 37.4 °F 32.1 °F 32.0 °F 81% 30.09 in 10.0 mi North 6.9 mph - N/A   Clear
5:33 AM 37.4 °F 33.8 °F 32.0 °F 81% 30.09 in 10.0 mi North 4.6 mph - N/A   Clear
5:52 AM 35.6 °F 31.7 °F 32.0 °F 87% 30.09 in 10.0 mi NNW 4.6 mph - N/A   Clear
6:12 AM 35.6 °F 30.7 °F 32.0 °F 87% 30.09 in 10.0 mi North 5.8 mph - N/A   Clear
6:33 AM 35.6 °F 29.9 °F 32.0 °F 87% 30.10 in 10.0 mi North 6.9 mph - N/A   Clear
7:12 AM 37.4 °F 31.4 °F 32.0 °F 81% 30.10 in 10.0 mi North 8.1 mph - N/A   Clear
7:33 AM 39.2 °F 32.0 °F 32.0 °F 75% 30.10 in 10.0 mi North 11.5 mph - N/A   Clear
8:12 AM 41.0 °F 33.9 °F 32.0 °F 70% 30.10 in 10.0 mi NNE 12.7 mph - N/A   Clear
8:33 AM 42.8 °F 36.2 °F 32.0 °F 66% 30.10 in 10.0 mi NNE 12.7 mph - N/A   Clear
8:52 AM 42.8 °F 37.0 °F 32.0 °F 66% 30.10 in 10.0 mi NNE 10.4 mph - N/A   Clear
9:12 AM 44.6 °F 40.2 °F 32.0 °F 61% 30.10 in 10.0 mi North 8.1 mph - N/A   Clear
9:33 AM 44.6 °F 40.7 °F 33.8 °F 66% 30.10 in 10.0 mi North 6.9 mph - N/A   Clear
9:52 AM 46.4 °F 42.9 °F 33.8 °F 62% 30.10 in 10.0 mi North 6.9 mph - N/A   Clear
10:12 AM 46.4 °F 42.9 °F 35.6 °F 66% 30.10 in 10.0 mi North 6.9 mph - N/A   Clear
10:33 AM 50.0 °F - 37.4 °F 62% 30.10 in 10.0 mi North 5.8 mph - N/A   Clear
10:52 AM 50.0 °F - 37.4 °F 62% 30.10 in 10.0 mi North 6.9 mph - N/A   Clear
11:12 AM 51.8 °F - 39.2 °F 62% 30.10 in 10.0 mi NNW 6.9 mph - N/A   Clear
11:33 AM 51.8 °F - 41.0 °F 67% 30.09 in 10.0 mi NNW 8.1 mph - N/A   Clear
12:12 PM 55.4 °F - 39.2 °F 54% 30.09 in 10.0 mi NW 9.2 mph - N/A   Clear
12:33 PM 55.4 °F - 35.6 °F 47% 30.09 in 10.0 mi NNW 10.4 mph 17.3 mph N/A   Clear
12:52 PM 57.2 °F - 35.6 °F 44% 30.08 in 10.0 mi North 3.5 mph - N/A   Clear
1:13 PM 59.0 °F - 35.6 °F 42% 30.08 in 10.0 mi North 10.4 mph - N/A   Clear
1:32 PM 59.0 °F - 33.8 °F 39% 30.08 in 10.0 mi NNW 8.1 mph 16.1 mph N/A   Clear
1:52 PM 59.0 °F - 32.0 °F 36% 30.07 in 10.0 mi NNW 9.2 mph - N/A   Clear
2:13 PM 60.8 °F - 32.0 °F 34% 30.06 in 10.0 mi North 9.2 mph - N/A   Clear
2:32 PM 60.8 °F - 30.2 °F 31% 30.07 in 10.0 mi NW 6.9 mph - N/A   Clear
2:52 PM 62.6 °F - 30.2 °F 30% 30.06 in 10.0 mi Calm Calm - N/A   Clear
3:13 PM 62.6 °F - 28.4 °F 27% 30.05 in 10.0 mi NNW 5.8 mph - N/A   Clear
3:32 PM 62.6 °F - 26.6 °F 26% 30.04 in 10.0 mi West 4.6 mph - N/A   Clear
3:52 PM 62.6 °F - 19.4 °F 19% 30.03 in 10.0 mi West 5.8 mph - N/A   Clear
4:12 PM 64.4 °F - 26.6 °F 24% 30.03 in 10.0 mi WNW 6.9 mph 10.4 mph N/A   Clear
4:32 PM 64.4 °F - 23.0 °F 21% 30.02 in 10.0 mi West 11.5 mph - N/A   Clear
4:53 PM 64.4 °F - 26.6 °F 24% 30.01 in 10.0 mi WNW 12.7 mph 17.3 mph N/A   Clear
5:32 PM 64.4 °F - 24.8 °F 22% 30.00 in 10.0 mi WNW 10.4 mph - N/A   Clear
5:53 PM 64.4 °F - 26.6 °F 24% 29.99 in 10.0 mi West 6.9 mph - N/A   Clear
6:12 PM 64.4 °F - 23.0 °F 21% 29.99 in 10.0 mi NW 6.9 mph 16.1 mph N/A   Clear
6:32 PM 64.4 °F - 24.8 °F 22% 29.98 in 10.0 mi West 9.2 mph - N/A   Clear
6:53 PM 64.4 °F - 26.6 °F 24% 29.98 in 10.0 mi WNW 9.2 mph - N/A   Clear
7:12 PM 64.4 °F - 28.4 °F 26% 29.97 in 10.0 mi WNW 8.1 mph - N/A   Clear
7:32 PM 64.4 °F - 28.4 °F 26% 29.97 in 10.0 mi WNW 5.8 mph - N/A   Clear
7:53 PM 62.6 °F - 30.2 °F 30% 29.97 in 10.0 mi WNW 5.8 mph - N/A   Clear
8:12 PM 60.8 °F - 32.0 °F 34% 29.98 in 10.0 mi WNW 4.6 mph - N/A   Clear
8:33 PM 59.0 °F - 33.8 °F 39% 29.97 in 10.0 mi West 5.8 mph - N/A   Clear
8:52 PM 57.2 °F - 33.8 °F 41% 29.97 in 10.0 mi West 4.6 mph - N/A   Clear
9:12 PM 55.4 °F - 35.6 °F 47% 29.97 in 10.0 mi SW 3.5 mph - N/A   Clear
9:32 PM 55.4 °F - 33.8 °F 44% 29.97 in 10.0 mi SW 4.6 mph - N/A   Scattered Clouds
9:52 PM 55.4 °F - 35.6 °F 47% 29.98 in 10.0 mi WSW 6.9 mph - N/A   Scattered Clouds
10:12 PM 55.4 °F - 37.4 °F 51% 29.97 in 10.0 mi WSW 5.8 mph - N/A   Scattered Clouds
10:33 PM 55.4 °F - 37.4 °F 51% 29.97 in 10.0 mi West 6.9 mph - N/A   Mostly Cloudy
10:52 PM 57.2 °F - 39.2 °F 51% 29.97 in 10.0 mi WSW 6.9 mph - N/A   Overcast
11:12 PM 59.0 °F - 39.2 °F 48% 29.97 in 10.0 mi WSW 8.1 mph - N/A   Overcast
11:33 PM 57.2 °F - 41.0 °F 55% 29.99 in 10.0 mi NW 25.3 mph 39.1 mph N/A   Overcast
11:52 PM 55.4 °F - 37.4 °F 51% 30.00 in 10.0 mi NW 26.5 mph 33.4 mph N/A   Mostly Cloudy